Location: Mountain Grove
(34.0887°N, 86.6172°W)
Time: 00:53:37
(UTC+00:00)

CZ-4B R/B - Pass Details

Date: 14 July 2020
Orbit: 702 x 803 km, 98.9° (Epoch: 12 August)

Event Time Altitude Azimuth Distance (km) Brightness Sun altitude
Rises 07:22:24 0° 19° (NNE) 3,215 7.9 -30.3°
Reaches altitude 10° 07:24:48 10° 24° (NNE) 2,271 6.9 -30.1°
Enters shadow 07:28:58 48° 71° (ENE) 952 4.1 -29.8°
